Location: Bergnershof
(48.9468°N, 10.9431°E)
Time: 05:07:42
(UTC+00:00)

Cosmos 1461 - Pass Details

Date: 03 March 2021
Orbit: 504 x 659 km, 65.0° (Epoch: 11 April)

Event Time Altitude Azimuth Distance (km) Brightness Sun altitude
Rises 17:29:23 0° 214° (SW) 2,960 7.2 -5.1°
Reaches altitude 10° 17:31:40 10° 214° (SW) 2,062 6.3 -5.5°
Maximum altitude 17:36:23 84° 129° (SE) 670 3.2 -6.3°
Drops below altitude 10° 17:41:08 10° 40° (NE) 2,076 5.4 -7.1°
Sets 17:43:26 0° 40° (NE) 2,982 6.2 -7.4°
